Weather History for Olathe, KS

Change the Weather History Date:

Saturday, January 12, 2013

  Actual Average Record
Temperature  
Mean Temperature 37 °F 30 °F  
Max Temperature 51 °F 39 °F 69 °F (1960)
Min Temperature 21 °F 21 °F -14 °F (1974)
Degree Days  
Heating Degree Days 28 35  
Month to date heating degree days 420  
Since 1 July heating degree days 2385  
Cooling Degree Days 0 0  
Month to date cooling degree days 0  
Year to date cooling degree days 0  
Moisture  
Dew Point 17 °F    
Average Humidity 58    
Maximum Humidity 82    
Minimum Humidity 31    
Precipitation  
Precipitation 0.00 in 0.02 in 0.44 in (1993)
Month to date precipitation 0.34  
Year to date precipitation 0.34  
Sea Level Pressure  
Sea Level Pressure 29.99 in    
Wind  
Wind Speed 13 mph (NNW)    
Max Wind Speed 17 mph    
Max Gust Speed 25 mph    
Visibility 10 miles    
Events      
T = Trace of Precipitation, MM = Missing Value Source: NWS Daily Summary

Daily Weather History Graph

Daily Weather History Graph

Search for Another Location

Airport:

Trip Planner

Search our weather history database for the weather conditions in past years. The results will help you decide how hot, cold, wet, or windy it might be!

Date:

Astronomy

Jan. 12, 2013 Rise Set
Actual Time 7:36 AM CST 5:18 PM CST
Civil Twilight 7:07 AM CST 5:47 PM CST
Nautical Twilight 6:34 AM CST 6:20 PM CST
Astronomical Twilight 6:02 AM CST 6:52 PM CST
Moon 7:57 AM CST (1/12) 6:47 PM CST (1/12)
Length of Visible Light 10h 40m
Length of Day
9h 41m
New Moon, 1% of the Moon is Illuminated
Jan 12
New Moon
Jan 18
First Quarter
Jan 26
Full
Feb 3
Last Quarter
Feb 10
New

Hourly Weather History & Observations

Time (CST) Temp. Windchill Dew Point Humidity Pressure Visibility Wind Dir Wind Speed Gust Speed Precip Events Conditions
12:53 AM 51.1 °F - 21.0 °F 31% 29.78 in 8.0 mi West 12.7 mph 18.4 mph N/A   Scattered Clouds
1:02 AM 50.0 °F - 21.2 °F 32% 29.79 in 8.0 mi West 11.5 mph 18.4 mph N/A   Mostly Cloudy
1:48 AM 44.6 °F 37.4 °F 28.4 °F 53% 29.83 in 7.0 mi NW 16.1 mph 25.3 mph N/A   Overcast
1:53 AM 44.1 °F 37.7 °F 30.0 °F 58% 29.84 in 7.0 mi NW 12.7 mph 23.0 mph N/A   Mostly Cloudy
2:53 AM 37.0 °F 28.9 °F 32.0 °F 82% 29.89 in 10.0 mi NW 12.7 mph - N/A   Mostly Cloudy
3:23 AM 35.6 °F 26.6 °F 30.2 °F 81% 29.91 in 10.0 mi NW 13.8 mph 23.0 mph N/A   Overcast
3:53 AM 35.1 °F 27.4 °F 28.0 °F 76% 29.93 in 10.0 mi NNW 10.4 mph - N/A   Mostly Cloudy
4:01 AM 35.6 °F 28.0 °F 28.4 °F 75% 29.92 in 10.0 mi NNW 10.4 mph - N/A   Partly Cloudy
4:53 AM 32.0 °F 24.8 °F 24.1 °F 73% 29.96 in 10.0 mi NW 8.1 mph 17.3 mph N/A   Clear
5:53 AM 28.9 °F 16.9 °F 18.0 °F 64% 29.96 in 10.0 mi NNW 17.3 mph 24.2 mph N/A   Clear
6:53 AM 27.0 °F 17.3 °F 15.1 °F 61% 30.02 in 10.0 mi North 10.4 mph - N/A   Clear
7:53 AM 27.0 °F 16.1 °F 15.1 °F 61% 30.02 in 10.0 mi NNW 12.7 mph - N/A   Clear
8:53 AM 27.0 °F 15.6 °F 12.0 °F 53% 30.07 in 10.0 mi NNW 13.8 mph 20.7 mph N/A   Scattered Clouds
9:53 AM 27.0 °F 18.0 °F 10.9 °F 51% 30.10 in 10.0 mi North 9.2 mph - N/A   Mostly Cloudy
10:53 AM 28.0 °F 18.6 °F 12.9 °F 53% 30.08 in 10.0 mi North 10.4 mph - N/A   Partly Cloudy
11:53 AM 30.0 °F 19.5 °F 12.9 °F 49% 30.01 in 10.0 mi North 13.8 mph - N/A   Partly Cloudy
12:53 PM 28.9 °F 19.2 °F 14.0 °F 54% 30.02 in 10.0 mi NNW 11.5 mph - N/A   Overcast
1:53 PM 28.9 °F 20.4 °F 15.1 °F 56% 30.04 in 10.0 mi North 9.2 mph - N/A   Overcast
2:53 PM 28.0 °F 18.6 °F 14.0 °F 56% 30.02 in 10.0 mi North 10.4 mph - N/A   Overcast
3:53 PM 28.0 °F 17.0 °F 10.9 °F 49% 30.03 in 10.0 mi North 13.8 mph - N/A   Overcast
4:53 PM 27.0 °F 16.1 °F 12.0 °F 53% 30.06 in 10.0 mi North 12.7 mph - N/A   Overcast
5:53 PM 25.0 °F 12.6 °F 10.9 °F 55% 30.06 in 10.0 mi NNW 15.0 mph 21.9 mph N/A   Overcast
7:53 PM 24.1 °F 12.0 °F 10.9 °F 57% 30.06 in 10.0 mi North 13.8 mph 21.9 mph 0.00 in   Overcast
8:53 PM 23.0 °F 9.6 °F 14.0 °F 68% 30.07 in 10.0 mi North 16.1 mph 20.7 mph 0.00 in   Overcast
9:53 PM 24.1 °F 11.0 °F 10.0 °F 55% 30.06 in 10.0 mi North 16.1 mph 21.9 mph N/A   Overcast
10:53 PM 23.0 °F 9.6 °F 10.0 °F 58% 30.07 in 10.0 mi North 16.1 mph - N/A   Overcast
11:53 PM 21.0 °F 7.6 °F 9.0 °F 60% 30.09 in 10.0 mi NNW 15.0 mph 23.0 mph N/A   Mostly Cloudy